Regional Weather Roundup
Issued by NWS

Home | Current Version | Previous Version | Graphics & Text | Print | Product List | Glossary On
Versions: 1 2 3 4 5 6 7 8 9 10 11 12 13 14 15 16 17 18 19 20 21 22 23 24 25 26 27 28 29 30 31 32 33 34 35 36 37 38 39 40 41 42 43 44 45 46 47 48 49 50
818
ASUS43 KIND 230809
RWRIN

WEATHER ROUNDUP FOR INDIANA
NATIONAL WEATHER SERVICE INDIANAPOLIS IN
400 AM EDT SAT SEP 23 2017

NOTE: "FAIR" INDICATES FEW OR NO CLOUDS BELOW 12,000 FEET WITH NO
SIGNIFICANT WEATHER AND/OR OBSTRUCTIONS TO VISIBILITY.

* - STATION DOES NOT REPORT WEATHER SUCH AS PRECIPITATION OR FOG.

+ - STATION NOT QUALITY CONTROLLED BY THE NATIONAL WEATHER SERVICE.
    USE DATA WITH CAUTION...ESPECIALLY DEWPOINT AND RELATIVE
    HUMIDITY OBSERVATIONS.

INZ001>003-010>013-019-020-230900-
NORTHWEST INDIANA

CITY           SKY/WX    TMP DP  RH WIND       PRES   REMARKS
GARY /AIRPORT/ CLEAR     68  66  94 CALM      30.04F
KNOX *+          N/A     63  63 100 CALM      30.05S
LA PORTE +     CLEAR     67  65  96 CALM      30.07S
MICHIGAN CITY+ CLEAR     68  68 100 CALM      30.05F
MONTICELLO +   CLEAR     67  66  96 CALM      30.05S
RENSSELAER +   CLEAR     68  63  83 CALM      30.05F
VALPARAISO     CLEAR     69  67  93 NE3       30.06S FOG

$$

LMZ046-743>745-230900-
SOUTHERN LAKE MICHIGAN

STATION/POSITION TIME  TEMP    WIND        PRES    WAVE
                       AIR SEA DIR/SP/G            HT
                 (UTC) (F)     (DEG/KT/KT) (MB)    (FT)
BURNS HARBOR     0803   76     180/  5/  9 1017.6
MICHIGAN CITY    0740   76     140/  7/  8   N/A
5NW MICH CITY    0800   72 72  240/  2/  2   N/A     0

$$

INZ004-005-014>016-021>024-230900-
NORTH CENTRAL INDIANA

CITY           SKY/WX    TMP DP  RH WIND       PRES   REMARKS
GOSHEN         CLEAR     69  65  86 CALM      30.07F
LOGANSPORT +   CLEAR     64  63  94 E3        30.07R
PERU/GRISSOM   CLEAR     70  70  99 E5        30.05S
SOUTH BEND     CLEAR     69  67  93 E3        30.06F
WARSAW +       CLEAR     66  66 100 CALM      30.07F FOG

$$

INZ006>009-017-018-025>027-230900-
NORTHEAST INDIANA

CITY           SKY/WX    TMP DP  RH WIND       PRES   REMARKS
AUBURN +       CLEAR     64  63  94 CALM      30.09R FOG
FORT WAYNE     CLEAR     67  64  90 CALM      30.08S
HUNTINGTON +   CLEAR     65  64  96 CALM      30.07S FOG
KENDALLVILLE + CLEAR     66  65  99 CALM      30.09F FOG

$$

INZ028-029-035-036-043>045-051>053-230900-
WEST CENTRAL INDIANA

CITY           SKY/WX    TMP DP  RH WIND       PRES   REMARKS
CRAWFORDSVL +  CLEAR     63  63 100 CALM      30.06
GREENCASTLE +  PTCLDY    66  64  94 CALM      30.07S
LAFAYETTE      CLEAR     68  68 100 CALM      30.04S
TERRE HAUTE    CLEAR     67  65  93 CALM      30.04F FOG

$$

INZ030>032-037>040-046>048-054>057-064-065-230900-
CENTRAL INDIANA

CITY           SKY/WX    TMP DP  RH WIND       PRES   REMARKS
CP ATTERBURY + FOG       63  61  94 CALM      30.07S VSB 1/2
FRANKFORT +    CLOUDY    67  65  93 CALM      30.08S
GREENWOOD *+   CLEAR     71  69  93 CALM      30.07S
INDIANAPOLIS   PTCLDY    71  66  84 SE5       30.06
-EAGLE CREEK   CLEAR     70  67  90 CALM      30.06S
KOKOMO +       CLEAR     66  65  96 CALM      30.07S FOG
MARION +       CLEAR     66  64  94 CALM      30.08S
MT COMFORT *+    N/A     64  64 100 CALM      30.07S
SHELBYVILLE    CLEAR     66  62  87 E5        30.06S
ZIONSVILLE +   CLEAR     64  64 100 CALM      30.08S FOG

$$

INZ033-034-041-042-049-050-058-059-230900-
EAST CENTRAL INDIANA

CITY           SKY/WX    TMP DP  RH WIND       PRES   REMARKS
MUNCIE         CLEAR     66  64  93 CALM      30.07S FOG
RICHMOND +     CLEAR     64  63  94 CALM      30.10R FOG

$$

INZ060-061-067>069-081>083-085>088-230900-
SOUTHWEST INDIANA

CITY           SKY/WX    TMP DP  RH WIND       PRES   REMARKS
EVANSVILLE     CLEAR     68  66  93 CALM      30.03F
HUNTINGBURG +  CLEAR     67  67 100 CALM      30.04F FOG
WASHINGTON +   PTCLDY    66  65  94 CALM      30.04S FOG

$$

INZ062-063-066-070>080-084-089>092-230900-
SOUTH CENTRAL AND SOUTHEAST INDIANA

CITY           SKY/WX    TMP DP  RH WIND       PRES   REMARKS
BEDFORD +      MOCLDY    68  64  88 CALM      30.05F FOG
BLOOMINGTON    CLEAR     65  63  93 CALM      30.06S FOG
MADISON *+     CLEAR     63  63 100 CALM      30.08S
NORTH VERNON + CLEAR     63  63 100 CALM      30.07S FOG
SEYMOUR +      FOG       66  66 100 CALM      30.06S VSB 1/2

$$





USA.gov is the U.S. government's official web portal to all federal, state and local government web resources and services.